Weather in Douliu

Taiwan     23°41′49″N   120°31′40″E
temp.,
°C
wind,
m/s
gust,
m/s
humid.,
%
clouds,
%
prec.,
mm/h
press.,
hPa
HPBL,
m
23 june, wed
wed2323:00+25ne2487100 0.3 1008147
02:00+25se1286100 0.4 100680
05:00+25se1280100 0.1 100648
08:00+26s1379100 0.1 1008122
11:00+27ssw3674100 0.1 1008478
14:00+25ssw1486100 1.1 1007233
17:00+26ssw3580100 0.3 1007339
20:00+25sse1283100 0.8 1008217
24 june, thu
thu2423:00+25sw4890100 0.8 1009540
02:00+24s51088100 4.3 1007539
05:00+25s1282100 0.0 100686
08:00+26nne118196 0.0 1008135
11:00+26ssw1373100 0.0 1008365
14:00+26ssw1475100 0.1 1007577
17:00+25ssw2384100 0.0 1006249
20:00+25se1283100 0.0 1008133
25 june, fri
fri2523:00+25ese0184100 0.3 1009117
02:00+24ese1185100 0.8 1007134
05:00+24s1186100 0.2 1007103
08:00+25sse2482100 0.3 1008239
11:00+30sw4556100 0.0 10071067
14:00+32ssw5651100 0.0 10061658
17:00+29sw6766100 1.1 1006915
20:00+27ssw357263 1.3 1007426
26 june, sat
sat2623:00+27ssw247699 0.0 1008261
02:00+26s1379100 0.0 1006175
05:00+25s1478100 0.0 1006179
08:00+28ssw366599 0.0 1007588
11:00+32sw6755100 0.0 10061430
14:00+31sw896494 1.6 10051281
17:00+29ssw797168 1.7 1005985
20:00+27ssw598270 2.3 1007550
27 june, sun
sun2723:00+26ssw4983100 0.0 1008500
02:00+26ssw4983100 0.1 1006514
05:00+26s498196 0.1 1006508
08:00+27s497765 0.1 1007572
11:00+30ssw796885 1.7 10071099
14:00+28ssw81174100 2.2 1006817
17:00+26ssw61081100 0.4 1006573
20:00+26s51085100 1.1 1007509